www.pogodaiklimat.ru

Погода и климат >> Архив погоды >> Россия >> Якутия >> Андрюшкино


ПОГОДА в Андрюшкино

  • Прогноз погоды в Андрюшкино
  • Монитор погоды в Андрюшкино

АРХИВ ПОГОДЫ в Андрюшкино

Время (UTC), дата Ветер
(напр.,м/с)
 
Видим.   Явления Облачность Т
(С)
Тd
(С)
f
(%)
Тe
(С)
Тes
(С)
Комфортность P
(гПа)
Po
(гПа)
Тmin
(С)
Tmax
(С)
R
(мм)
R24
(мм)
S
(см)
09 12.07 С 6 50 км в посл. час дождь 8/4 300 м
[Sc Ac As Ci fib]
+18.6 +15.9 84 +19 +19 1009.8 1007.9 +26.2 0.0
12 12.07 С 4 50 км {дождь} 10/10 270 м
[St]
+15.0 +14.3 96 +14 +14 1010.6 1008.7
15 12.07 СЗ 1 500 м туман ?/? +13.1 +13.1 100 +13 +13 1009.9 1008.0
18 12.07 штиль 0 200 м туман ?/? +12.4 +12.4 100 +12 +12 1009.5 1007.6
21 12.07 Ю 1 500 м туман ?/? +13.0 +12.6 97 +13 +13 1009.2 1007.3 +11.7
00 13.07 Ю 2 50 км {туман} 3/0
[Ci fib]
+19.4 +15.2 77 +22 +30 комфорт 1007.9 1006.0
03 13.07 ЮЗ 3 50 км 6/3 600 м
[Cu hum Ci fib]
+23.5 +15.9 62 +27 +32 душно 1006.3 1004.4
06 13.07 З 2 50 км 8/4 600 м
[Cu med, cong Ci fib]
+25.8 +15.1 52 +29 +31 душно 1005.6 1003.8
09 13.07 С 7 50 км 9/0
[Ac trans Ci fib]
+17.6 +12.6 72 +17 +17 1007.6 1005.7 +26.2
12 13.07 С 7 50 км 9/3 600 м
[Sc Ac As Ci fib]
+12.5 +10.4 87 +10 +10 1009.4 1007.5
15 13.07 С 4 50 км {дождь} 10/4 600 м
[Sc Ac As]
+10.0 +8.4 90 +7 +7 1009.8 1007.8
18 13.07 СВ 4 50 км {дождь} 9/4 600 м
[Sc Ac As]
+10.6 +7.9 83 +8 +8 1010.0 1008.0
21 13.07 СВ 3 10 км слаб. дождь 10/0
[As op]
+10.4 +8.8 90 +8 +9 1010.0 1008.0 +9.9 0.0
00 14.07 СВ 3 10 км слаб. дождь 10/3 300 м
[Frnb As op]
+11.5 +9.5 88 +10 +11 1008.7 1006.8
03 14.07 СВ 5 50 км {дождь} 10/4 300 м
[Sc Ac As Ci fib]
+11.5 +7.8 78 +9 +10 1007.3 1005.4
06 14.07 СВ 5 50 км {дождь} 10/3 300 м
[St Ac As Ci fib]
+13.1 +9.8 80 +11 +12 1006.2 1004.3
09 14.07 СВ 5 50 км 10/3 300 м
[St Ac As]
+12.8 +10.1 84 +11 +11 1005.2 1003.3 +13.7 0.0
12 14.07 СВ 4 50 км в посл. час дождь 10/3 300 м
[St Ac As]
+11.4 +9.6 89 +9 +9 1005.4 1003.5
15 14.07 СВ 5 4000 м гроза, ливневой дождь 10/10 660 м
[Cb calv]
+7.6 +7.2 97 +4 +4 1005.2 1003.2
18 14.07 С 4 50 км в посл. час дождь {гроза, ливн. осадки} 10/10 200 м
[St]
+8.2 +7.8 97 +5 +5 1006.1 1004.1
21 14.07 С 3 50 км 9/8 240 м
[St Ac As]
+8.5 +7.0 90 +6 +6 1007.3 1005.3 +7.1 10.8
00 15.07 С 2 50 км 9/9 540 м
[Sc]
+11.0 +8.4 84 +10 +11 1008.1 1006.2
03 15.07 З 3 50 км 9/8 570 м
[Sc Ci fib]
+14.2 +8.4 68 +13 +15 1007.7 1005.8
06 15.07 СЗ 5 50 км 10/8 450 м
[Sc Ci fib]
+12.3 +10.8 91 +10 +10 1008.0 1006.1
09 15.07 С 4 50 км 9/9 360 м
[St]
+9.8 +7.9 88 +7 +7 1008.5 1006.6 +15.0
12 15.07 С 2 50 км 9/6 800 м
[Sc Ac As]
+8.5 +7.2 92 +7 +7 1009.0 1007.0
15 15.07 Ю 2 50 км 4/0
[Ac As]
+7.0 +6.3 95 +5 +5 1008.3 1006.3
18 15.07 З 3 50 км 8/3 300 м
[Sc Ac As]
+8.0 +5.3 83 +5 +5 1007.4 1005.4
21 15.07 50 км н/о +9.7 +4.3 69 +7 +8 1006.5 1004.6 +6.7
00 16.07 З 5 50 км 9/9 540 м
[Sc]
+11.4 +3.5 58 +9 +10 1005.6 1003.7
03 16.07 З 4 10 км слаб. дождь 10/8 450 м
[Sc As op]
+10.5 +7.4 81 +8 +8 1004.8 1002.9
06 16.07 З 6 50 км в посл. час морось {ливн. осадки, дождь} 10/6 600 м
[Cb cap As op]
+10.2 +9.1 93 +7 +7 1004.9 1003.0
09 16.07 З 6 50 км {ливн. осадки} 8/4 600 м
[Cb cap]
+9.8 +6.8 82 +6 +6 1005.8 1003.9 +11.5 0.6
12 16.07 СЗ 4 50 км {морось} 9/4 700 м
[Cb cap]
+7.5 +4.3 80 +4 +4 1006.9 1004.9
15 16.07 СЗ 3 50 км 8/8 660 м
[Sc]
+5.4 +4.5 94 +2 +2 1007.6 1005.6
18 16.07 З 3 50 км 9/6 660 м
[Sc Ci fib]
+5.4 +3.5 88 +2 +2 1007.5 1005.5
21 16.07 З 2 50 км 9/8 540 м
[Sc Ci fib]
+6.4 +3.6 82 +4 +5 1007.4 1005.4 +4.6 0.0
00 17.07 З 3 50 км {морось} 8/8 800 м
[Cu med, cong Ci fib]
+8.0 +3.6 74 +5 +7 1006.9 1004.9
03 17.07 З 5 10 км слаб. дождь 10/10 800 м
[Cu med, cong]
+7.7 +3.8 76 +4 +4 1006.5 1004.5
06 17.07 З 2 50 км {ливн. осадки, дождь} 8/4 600 м
[Cu med, cong Ac trans]
+8.6 +4.3 74 +7 +9 1006.3 1004.3
09 17.07 СЗ 4 50 км {ливн. осадки, дождь} 9/6 800 м
[Sc Ac trans Ci fib]
+9.4 +4.2 70 +7 +7 1006.3 1004.4 +10.0 0.4
12 17.07 С 3 50 км {ливн. осадки} 4/3 600 м
[Sc Ac trans]
+6.6 +5.0 90 +3 +3 1007.6 1005.6
15 17.07 С 2 50 км 3/0
[Ac trans]
+4.0 +3.0 93 +1 +1 1008.1 1006.1
18 17.07 С 2 50 км 4/3 300 м
[St Ac trans]
+4.0 +2.8 92 +1 +2 1008.7 1006.7
21 17.07 С 3 50 км 10/8 600 м
[Sc Ac As]
+5.0 +2.0 81 +2 +2 1009.2 1007.2 +3.4 0.0
00 18.07 СЗ 3 50 км 10/8 570 м
[Sc Ac As]
+5.4 +1.1 74 +2 +3 1010.2 1008.2
03 18.07 С 3 50 км 10/8 630 м
[Sc Ac As]
+6.5 +2.4 75 +4 +4 1010.6 1008.6
06 18.07 С 5 10 км 10/8 660 м
[Sc As op]
+8.0 +2.8 70 +4 +5 1011.2 1009.2
09 18.07 С 4 50 км 9/9 750 м
[Sc]
+6.7 +0.9 66 +3 +3 1012.6 1010.6 +8.1 0.0
12 18.07 С 4 50 км 6/6 630 м
[Sc]
+4.7 +1.1 77 +1 +1 1014.4 1012.4
15 18.07 С 3 50 км 8/8 540 м
[Sc]
+3.4 +1.9 90 -1 -1 1015.1 1013.1
18 18.07 СВ 5 50 км 9/9 360 м
[St]
+2.1 +1.3 94 -4 -4 1015.9 1013.9
21 18.07 С 3 50 км в посл. час морось 10/10 210 м
[St]
+1.2 +0.7 96 -3 -3 1016.8 1014.8 +0.7 0.0
00 19.07 С 3 50 км {морось} 10/10 420 м
[Sc]
+3.2 +0.6 83 -1 -1 1016.9 1014.9
03 19.07 С 1 50 км 8/6 540 м
[Sc Ci fib]
+7.3 +1.7 68 +7 +11 1016.2 1014.2

 

Местоположение метеостанции Андрюшкино (Якутия, Россия): широта 69.17 долгота 154.50 высота над уровнем моря 16 м.

В архиве по умолчанию представлена погода в Андрюшкино за последнюю неделю. Архивные данные за месяц целиком и за предыдущие месяцы, начиная с января 2011 года, Вы можете получить, выбрав интересующий диапазон дат из раскрывающегося списка и нажав кнопку "Ввод!".


*Определитесь, кто Вы:
робот инопланетянин человек

Внимание! Время в таблицах - всемирное. Для получения местного времени необходимо прибавить поправку, которая равна 11 ч.

Смотрите также архив погоды в соседних городах и на ближайших метеорологических станциях:

Погода в Колымской (Якутия, Россия) (171 км)
Погода в Среднеколымске (Якутия, Россия) (194 км)
Погода в Черском (Якутия, Россия) (276 км)
Погода в Константиновской (Чукотка, Россия) (290 км)
Погода в Анюйске (Чукотка, Россия) (296 км)
Погода в Чокурдахе (Якутия, Россия) (302 км)
Погода в Бухте Амбарчик (Чукотка, Россия) (309 км)
Погода в Белой Горе (Якутия, Россия) (340 км)
Погода в Островном (Чукотка, Россия) (406 км)
Погода в Зырянке (Якутия, Россия) (412 км)

Пояснения к столбцам:

Ветер - указаны скорость ветра в м/с - средняя за 10 мин, порывы в срок и между сроками (в фигурных скобках) и направление, откуда дует ветер: С - северный, СВ - северо-восточный, В - восточный, ЮВ - юго-восточный, Ю - южный, ЮЗ - юго-западный, З - западный, СЗ - северо-западный.
Видимость - горизонтальная дальность видимости в метрах или километрах. При видимости от 1 до 10 км при отсутствии осадков обычно наблюдается дымка, при ухудшении видимости до 1 км и менее - туман. В сухую погоду видимость может ухудшаться дымом, пылью или мглою.
Явления - указаны атмосферные явления, наблюдавшиеся в срок или в последний час перед сроком; фигурными скобками обозначены явления, наблюдавшиеся между сроками (за 1-3 часа до срока); квадратными скобками обозначены град или гололедные отложения с указанием их диаметра в мм.
Облачность - указаны через наклонную черту общая и нижняя облачность в баллах и высота нижней границы облаков в метрах; квадратными скобками обозначены формы облаков: Ci - перистые, Cs - перисто-слоистые, Cc - перисто-кучевые, Ac - высококучевые, As - высокослоистые, Sc - слоисто-кучевые, Ns - слоисто-дождевые, Cu - кучевые, Cb - кучево-дождевые. Подробнее классификацию облаков см. в Атласе облаков (PDF).
T - Температура воздуха - температура, измеренная на высоте 2 м над землей.
Td - Температура точки росы - температура, при понижении до которой содержащийся в воздухе водяной пар достигнет насыщения.
f - Относительная влажность воздуха - влажноcть воздуха, измеренная на высоте 2 м над землей.
Te - Эффективная температура - температура, которую ощущает одетый по сезону человек в тени. Характеристика душности погоды. При расчете учитывается влияние влажности воздуха и скорости ветра на теплоощущения человека.
Tes - Эффективная температура на солнце - температура, которую ощущает человек, с поправкой на солнечный нагрев. Характеристика знойности погоды. Зависит от высоты солнца над горизонтом, облачности и скорости ветра. Ночью, в пасмурную погоду, а также при ветре 12 м/с и более поправка равна нулю.
P - Атмосферное давление - приведенное к уровню моря атмосферное давление.
Po - Атмосферное давление - измеренное на уровне метеостанции атмосферное давление.
Tmin - Минимальная температура - минимум температуры воздуха на высоте 2 м над землей.
Tmax - Максимальная температура - максимум температуры воздуха на высоте 2 м над землей.
R - Количество осадков - Количество выпавших осадков за период времени, мм. При наведении курсора мыши на число - период времени, за который выпало указанное количество осадков.
R24 - Количество осадков - Количество выпавших осадков за 24 часа, мм.
S - Снежный покров - Высота снежного покрова, см. При наведении курсора мыши на число - состояние снежного покрова и степень покрытия местности в баллах.